Location: Munkebjergskolens Observatorium
(55.3864°N, 10.3987°E)
Time: 05:12:56
(UTC+02:00)

KKS-1 - Pass Details

Date: 07 April 2023
Orbit: 633 x 644 km, 98.2° (Epoch: 31 May)

Event Time Altitude Azimuth Distance (km) Brightness Sun altitude
Rises 00:36:22 0° 13° (NNE) 2,946 ? -27.3°
Reaches altitude 10° 00:38:36 10° 10° (N) 2,033 ? -27.4°
Enters shadow 00:42:28 55° 320° (NW) 770 ? -27.5°
